Home   Weather   Nürtingen   Past weeks

Flag for Germany Past Weather in Nürtingen, Baden-Württemberg, Germany — Yesterday and Last 2 Weeks

Now
55 °F

Partly sunny.


Feels Like: 55 °F
Forecast: 56 / 66 °F
Wind: 5 mph from Southwest

Location: Stuttgart-Echterdingen

Current Time: Jul 25, 2017 at 8:58:03 am

Latest Report: Jul 25, 2017 at 8:20 am


Visibility: N/A

Pressure: 29.83 "Hg

Humidity: 94%

Dew Point: 54 °F

Location of NürtingenLocation

Past Weather in Nürtingen — Graph

°F

Nürtingen Temperature Yesterday

Maximum temperature yesterday: 66 °F (at 3:50 pm)
Minimum temperature yesterday: 55 °F (at 3:50 am)
Average temperature yesterday: 60 °F

High & Low Weather Summary for the Past Weeks

 TemperatureHumidityPressure
High91 °F (Jul 19, 3:20 pm)100% (Jul 11, 12:50 am)30.30 "Hg (Jul 11, 12:50 am)
Low50 °F (Jul 16, 3:50 am)29% (Jul 19, 4:20 pm)29.77 "Hg (Jul 24, 8:20 am)
Average67 °F70%30.02 "Hg
* Reported Jul 10 7:20 am — Jul 25 7:50 am, Nürtingen. Weather by CustomWeather, © 2017

Note: Actual official high and low records may vary slightly from our data, if they occured in-between our weather recording intervals... More about our weather records

Advertising

Nürtingen Weather History for the Previous 24 Hours

Scroll right to see more
 ConditionsComfort  
Time TempWeatherWind HumidityBarometerVisibility
7:50 am
Tue, Jul 25
55 °FBroken clouds.3 mph94%29.83 "HgN/A
7:20 am55 °FPartly sunny.2 mph88%29.83 "HgN/A
6:50 am54 °FPartly sunny.3 mph94%29.83 "HgN/A
6:20 am54 °FPartly sunny.3 mph94%29.83 "HgN/A
5:50 am54 °FPartly sunny.7 mph94%29.83 "HgN/A
5:29 am54 °FPassing clouds.5 mph94%29.83 "HgN/A
4:50 am54 °FPartly cloudy.6 mph94%29.86 "HgN/A
4:20 am54 °FLight rain. Partly cloudy.8 mph94%29.86 "HgN/A
3:50 am55 °FLight rain. Passing clouds.8 mph88%29.86 "HgN/A
3:20 am55 °FPassing clouds.7 mph94%29.86 "HgN/A
2:50 am55 °FPassing clouds.6 mph94%29.86 "HgN/A
2:20 am55 °FRain. Passing clouds.5 mph94%29.86 "HgN/A
1:50 am55 °FPartly cloudy.2 mph94%29.86 "HgN/A
1:20 am55 °FScattered showers. Partly cloudy.5 mph94%29.86 "HgN/A
12:50 am55 °FScattered showers. Partly cloudy.3 mph94%29.86 "HgN/A
12:20 am55 °FScattered showers. Passing clouds.5 mph94%29.86 "HgN/A
11:50 pm
Mon, Jul 24
55 °FPassing clouds.3 mph94%29.86 "HgN/A
11:20 pm55 °FPassing clouds.5 mph94%29.86 "HgN/A
10:50 pm55 °FPassing clouds.7 mph88%29.86 "HgN/A
10:20 pm55 °FPassing clouds.5 mph88%29.86 "HgN/A
9:50 pm55 °FPassing clouds.3 mph88%29.86 "HgN/A
8:50 pm55 °FScattered showers. Partly sunny.6 mph88%29.86 "HgN/A
8:20 pm57 °FSprinkles. Broken clouds.12 mph82%29.86 "HgN/A
7:50 pm59 °FScattered showers. Broken clouds.16 mph72%29.86 "HgN/A
7:20 pm59 °FBroken clouds.13 mph77%29.86 "HgN/A
6:50 pm61 °FBroken clouds.12 mph68%29.86 "HgN/A
6:20 pm61 °FSprinkles. Broken clouds.18 mph77%29.83 "HgN/A
5:50 pm64 °FBroken clouds.14 mph60%29.83 "HgN/A
5:20 pm64 °FBroken clouds.17 mph60%29.83 "HgN/A
4:50 pm64 °FSprinkles. Broken clouds.13 mph56%29.83 "HgN/A
4:20 pm66 °FScattered clouds.10 mph56%29.83 "HgN/A
3:50 pm66 °FBroken clouds.12 mph56%29.83 "HgN/A
3:20 pm64 °FBroken clouds.13 mph60%29.83 "HgN/A
2:50 pm64 °FBroken clouds.15 mph60%29.83 "HgN/A
2:20 pm64 °FBroken clouds.15 mph60%29.83 "HgN/A
1:50 pm63 °FBroken clouds.14 mph64%29.83 "HgN/A
1:20 pm63 °FPartly sunny.13 mph64%29.83 "HgN/A
12:50 pm63 °FPartly sunny.18 mph64%29.83 "HgN/A
12:20 pm63 °FBroken clouds.18 mph64%29.83 "HgN/A
11:50 am63 °FBroken clouds.16 mph68%29.83 "HgN/A
11:20 am61 °FBroken clouds.23 mph77%29.80 "HgN/A
10:50 am63 °FScattered showers. Broken clouds.17 mph77%29.80 "HgN/A
10:31 am61 °FLight rain. Broken clouds.12 mph88%29.80 "HgN/A
10:20 am63 °FLight rain. Partly sunny.6 mph83%29.77 "HgN/A
9:50 am63 °FLight rain. Partly sunny.8 mph77%29.77 "HgN/A
9:20 am64 °FLight rain. Partly sunny.9 mph73%29.77 "HgN/A
8:50 am63 °FLight rain. Partly sunny.7 mph73%29.77 "HgN/A
8:20 am61 °FLight rain. Partly sunny.7 mph83%29.77 "HgN/A
Weather by CustomWeather, © 2017

See weather overviewHow to use our weather pages